Content
SEND FEEDBACK

Daily
Averages
Monthly
Summary
United States of America

HILLSIDE, NEW JERSEY


Home > North America > United States > New Jersey
Elevation: 40 feet     Latitude: 40 40N     Longitude: 074 14W

WEATHER
 
SELECT A DAY
Number of Records: 193,924;   Date Range: 1/1/95 - 12/18/14
 
SHARE

PRINT THIS DATA

[ ← Previous Day ]
WEATHER ALMANAC - APRIL 9, 2014
[ Next Day → ]
[ °C ]   °F
Weather ElementAverageHighLow
Temperature53.5 °F63 °F (3:51 pm)45 °F (4:51 am)
Dewpoint27.7 °F35.1 °F (7:51 am)19 °F (11:51 pm)
Humidity40 %65 % (4:51 am)21 % (4:51 pm)
Barometer29.77 in30.04 in (11:51 pm)29.64 in (2:51 am)
Wind Speed13.1 mph24.2 mph (4:51 pm)
Wind Gust35.7 mph (4:51 pm)
Weather ElementAverage
Visibility10 mi
Wind DirectionWNW (304.3 °)

Weather ElementTotal
Precipitation---
Heating Degree Days11 (Base 65)
Growing Degree Days4 (Base 50)
Averaged from 23 records on April 9, 2014
WEATHER CONDITIONS BREAKOUT
WIND DIRECTION BREAKOUT
WEATHER BY HOUR - APRIL 9, 2014
[ °C ]   °F
Local TimeTemperatureDewpointHumidityBarometerVisibilityWind DirectionWind SpeedGust SpeedPrecipitationEventsConditions
1:51 AM48.0 °F34.0 °F58 %29.65 in10.0 miNW (320°)9.2 mphClear
2:51 AM48.0 °F34.0 °F58 %29.64 in10.0 miNNW (330°)10.4 mphClear
3:51 AM46.0 °F34.0 °F63 %29.64 in10.0 miNW (310°)8.1 mphClear
4:51 AM45.0 °F34.0 °F65 %29.65 in10.0 miNW (310°)8.1 mphClear
5:51 AM45.0 °F34.0 °F65 %29.67 in10.0 miNW (310°)5.8 mphClear
6:51 AM45.0 °F34.0 °F65 %29.69 in10.0 miWNW (300°)5.8 mphPartly Cloudy
7:51 AM48.0 °F35.1 °F61 %29.72 in10.0 miNW (310°)9.2 mphPartly Cloudy
8:51 AM52.0 °F34.0 °F50 %29.73 in10.0 miVariable5.8 mphPartly Cloudy
9:51 AM55.0 °F33.1 °F43 %29.73 in10.0 miNW (310°)10.4 mph19.6 mphScattered Clouds
10:51 AM57.9 °F33.1 °F39 %29.74 in10.0 miNW (310°)12.7 mph18.4 mphScattered Clouds
11:51 AM60.1 °F33.1 °F36 %29.73 in10.0 miNW (310°)9.2 mphScattered Clouds
12:51 PM61.0 °F27.0 °F27 %29.74 in10.0 miNNW (330°)17.3 mph25.3 mphScattered Clouds
1:51 PM62.1 °F24.1 °F23 %29.74 in10.0 miNW (310°)17.3 mph31.1 mphScattered Clouds
2:51 PM62.1 °F24.1 °F23 %29.73 in10.0 miWNW (300°)19.6 mph29.9 mphScattered Clouds
3:51 PM63.0 °F23.0 °F22 %29.74 in10.0 miNW (310°)17.3 mph33.4 mphMostly Cloudy
4:51 PM61.0 °F21.0 °F21 %29.77 in10.0 miNW (320°)24.2 mph35.7 mphMostly Cloudy
5:51 PM59.0 °F19.4 °F22 %29.80 in10.0 miNW (320°)19.6 mph31.1 mphPartly Cloudy
6:51 PM57.0 °F21.9 °F26 %29.82 in10.0 miNW (310°)21.9 mph29.9 mphPartly Cloudy
7:51 PM54.0 °F21.9 °F29 %29.88 in10.0 miNNW (330°)18.4 mph25.3 mphPartly Cloudy
8:51 PM53.1 °F19.9 °F27 %29.93 in10.0 miNNW (340°)19.6 mph26.5 mphClear
9:51 PM51.1 °F21.0 °F31 %29.97 in10.0 miNNW (330°)12.7 mph19.6 mphClear
10:51 PM50.0 °F21.9 °F33 %30.00 in10.0 miNW (320°)10.4 mphClear
11:51 PM48.0 °F19.0 °F32 %30.04 in10.0 miNorth (360°)8.1 mphClear
Hourly data recorded from KEWR, located miles away from Hillside, New Jersey







STORIES FROM OUR PARTNERS